Location: Kleinseebach
(49.6500°N, 11.0000°E)
Time: 14:04:19
(UTC+01:00)

ISS - Visible Passes

Search period start: 02 March 2024 00:00
Search period end: 12 March 2024 00:00
Orbit: 414 x 422 km, 51.6° (Epoch: 02 March)

Date Brightness Start Highest point End Pass type
(mag) Time Alt. Az. Time Alt. Az. Time Alt. Az.
02 Mar -2.8 04:35:50 47° ENE 04:35:50 47° ENE 04:38:28 10° E visible
02 Mar -3.4 06:08:46 11° WNW 06:11:53 51° SSW 06:15:10 10° SE visible
03 Mar -0.6 03:49:48 15° E 03:49:48 15° E 03:50:26 10° E visible
03 Mar -3.8 05:22:44 36° W 05:23:57 72° SSW 05:27:20 10° ESE visible
04 Mar -3.0 04:36:44 51° ESE 04:36:44 51° ESE 04:39:21 10° ESE visible
04 Mar -2.4 06:09:40 10° W 06:12:28 25° SW 06:15:19 10° SSE visible
05 Mar -0.7 03:50:47 14° E 03:50:47 14° E 03:51:17 10° E visible
05 Mar -3.0 05:23:44 31° WSW 05:24:34 37° SSW 05:27:42 10° SE visible
06 Mar -2.4 04:37:51 31° SSE 04:37:51 31° SSE 04:39:53 10° SE visible
06 Mar -1.5 06:11:27 10° WSW 06:12:45 12° SW 06:14:02 10° SSW visible
07 Mar -2.0 05:25:03 18° SW 05:25:03 18° SW 05:27:14 10° S visible
08 Mar -1.1 04:39:25 12° SSE 04:39:25 12° SSE 04:39:47 10° SSE visible
